LNI271 WADD-WAHS

Flight info

Callsign LNI271
Flight time 0h 56m
Altitude 34000
Route OKANG T4 WAWAN
Aircraft B738/M-SDE2E3FGHIRWXY/LB1

Departure

Time 2026-04-20 03:22
Airport Denpasar I Gusti Ngurah Rai International Airport (WADD)

Arrival

Time 2026-04-20 04:18
Airport Jenderal Ahmad Yani Airport (WAHS)
Time Latitude Longitude Altitude Speed Heading
2026-04-20 02:58 -8.74542 115.15901 32 ft 0 kts 269°
2026-04-20 03:09 -8.74542 115.15902 32 ft 1 kts 269°
2026-04-20 03:10 -8.74541 115.15917 32 ft 3 kts 268°
2026-04-20 03:10 -8.74541 115.15937 32 ft 3 kts 267°
2026-04-20 03:10 -8.74540 115.15958 32 ft 3 kts 268°
2026-04-20 03:10 -8.74538 115.15977 32 ft 3 kts 244°
2026-04-20 03:11 -8.74527 115.15991 32 ft 3 kts 204°
2026-04-20 03:11 -8.74512 115.15995 32 ft 1 kts 178°
2026-04-20 03:11 -8.74511 115.15995 32 ft 0 kts 178°
2026-04-20 03:12 -8.74558 115.15997 32 ft 12 kts 178°
2026-04-20 03:13 -8.74640 115.16000 32 ft 10 kts 178°
2026-04-20 03:13 -8.74691 115.16018 32 ft 8 kts 136°
2026-04-20 03:13 -8.74706 115.16068 32 ft 8 kts 89°
2026-04-20 03:13 -8.74704 115.16120 32 ft 7 kts 88°
2026-04-20 03:14 -8.74702 115.16177 32 ft 8 kts 88°
2026-04-20 03:14 -8.74701 115.16235 30 ft 8 kts 88°
2026-04-20 03:14 -8.74699 115.16291 30 ft 8 kts 88°
2026-04-20 03:14 -8.74697 115.16345 32 ft 8 kts 88°
2026-04-20 03:15 -8.74695 115.16398 29 ft 8 kts 87°
2026-04-20 03:15 -8.74691 115.16473 31 ft 15 kts 87°
2026-04-20 03:15 -8.74684 115.16605 31 ft 22 kts 87°
2026-04-20 03:15 -8.74678 115.16767 31 ft 23 kts 88°
2026-04-20 03:16 -8.74672 115.16925 31 ft 22 kts 87°
2026-04-20 03:16 -8.74665 115.17053 31 ft 9 kts 87°
2026-04-20 03:16 -8.74663 115.17117 31 ft 9 kts 88°
2026-04-20 03:16 -8.74660 115.17180 30 ft 9 kts 88°
2026-04-20 03:17 -8.74658 115.17242 31 ft 9 kts 88°
2026-04-20 03:17 -8.74655 115.17301 31 ft 8 kts 88°
2026-04-20 03:17 -8.74653 115.17359 29 ft 8 kts 88°
2026-04-20 03:17 -8.74651 115.17415 31 ft 8 kts 88°
2026-04-20 03:18 -8.74648 115.17469 31 ft 8 kts 86°
2026-04-20 03:18 -8.74645 115.17526 31 ft 9 kts 88°
2026-04-20 03:18 -8.74642 115.17601 31 ft 12 kts 88°
2026-04-20 03:18 -8.74638 115.17696 30 ft 15 kts 88°
2026-04-20 03:19 -8.74634 115.17804 32 ft 15 kts 88°
2026-04-20 03:19 -8.74630 115.17910 32 ft 15 kts 88°
2026-04-20 03:19 -8.74626 115.18004 31 ft 11 kts 88°
2026-04-20 03:19 -8.74635 115.18069 31 ft 9 kts 120°
2026-04-20 03:20 -8.74686 115.18095 30 ft 9 kts 177°
2026-04-20 03:20 -8.74747 115.18098 28 ft 8 kts 178°
2026-04-20 03:20 -8.74779 115.18094 28 ft 4 kts 216°
2026-04-20 03:20 -8.74787 115.18067 28 ft 4 kts 265°
2026-04-20 03:21 -8.74788 115.18037 29 ft 6 kts 268°
2026-04-20 03:21 -8.74794 115.17878 28 ft 55 kts 267°
2026-04-20 03:21 -8.74810 115.17502 28 ft 103 kts 268°
2026-04-20 03:21 -8.74850 115.16563 34 ft 162 kts 267°
2026-04-20 03:22 -8.74894 115.15359 613 ft 170 kts 268°
2026-04-20 03:22 -8.74927 115.13773 1713 ft 173 kts 269°
2026-04-20 03:22 -8.74930 115.12522 2400 ft 185 kts 269°
2026-04-20 03:22 -8.74913 115.11175 3052 ft 195 kts 270°
2026-04-20 03:23 -8.74880 115.10242 3591 ft 199 kts 270°
2026-04-20 03:23 -8.74853 115.08754 3876 ft 225 kts 274°
2026-04-20 03:23 -8.74223 115.07236 4061 ft 249 kts 311°
2026-04-20 03:23 -8.72956 115.05993 4526 ft 258 kts 317°
2026-04-20 03:24 -8.71631 115.04747 5082 ft 262 kts 317°
2026-04-20 03:24 -8.70294 115.03480 5670 ft 265 kts 317°
2026-04-20 03:24 -8.68956 115.02194 6252 ft 267 kts 317°
2026-04-20 03:24 -8.67623 115.00899 6794 ft 271 kts 316°
2026-04-20 03:25 -8.66236 114.99538 7244 ft 282 kts 316°
2026-04-20 03:25 -8.64793 114.98113 7590 ft 297 kts 316°
2026-04-20 03:25 -8.63306 114.96637 8306 ft 301 kts 316°
2026-04-20 03:25 -8.61833 114.95167 9121 ft 302 kts 316°
2026-04-20 03:26 -8.60330 114.93663 9864 ft 306 kts 316°
2026-04-20 03:26 -8.58802 114.92132 10446 ft 317 kts 316°
2026-04-20 03:26 -8.57180 114.90505 10615 ft 340 kts 316°
2026-04-20 03:26 -8.55452 114.88770 10831 ft 359 kts 316°
2026-04-20 03:27 -8.53662 114.86972 11327 ft 367 kts 316°
2026-04-20 03:27 -8.51846 114.85147 11988 ft 370 kts 316°
2026-04-20 03:27 -8.50017 114.83308 12651 ft 372 kts 316°
2026-04-20 03:27 -8.48176 114.81456 13290 ft 375 kts 316°
2026-04-20 03:28 -8.46316 114.79586 13895 ft 379 kts 316°
2026-04-20 03:28 -8.44440 114.77701 14485 ft 382 kts 316°
2026-04-20 03:28 -8.40637 114.73880 15648 ft 389 kts 316°
2026-04-20 03:29 -8.38713 114.71948 16206 ft 392 kts 316°
2026-04-20 03:29 -8.36768 114.69995 16766 ft 395 kts 316°
2026-04-20 03:29 -8.34812 114.68030 17309 ft 398 kts 316°
2026-04-20 03:29 -8.32839 114.66050 17827 ft 401 kts 316°
2026-04-20 03:30 -8.30855 114.64058 18324 ft 404 kts 316°
2026-04-20 03:30 -8.28848 114.62044 18825 ft 407 kts 316°
2026-04-20 03:30 -8.26834 114.60025 19330 ft 409 kts 316°
2026-04-20 03:30 -8.24813 114.57996 19830 ft 411 kts 316°
2026-04-20 03:31 -8.22777 114.55952 20304 ft 414 kts 316°
2026-04-20 03:31 -8.20728 114.53896 20724 ft 417 kts 316°
2026-04-20 03:31 -8.18668 114.51831 21142 ft 419 kts 316°
2026-04-20 03:31 -8.16595 114.49751 21580 ft 421 kts 316°
2026-04-20 03:32 -8.14512 114.47663 21994 ft 423 kts 316°
2026-04-20 03:32 -8.12418 114.45565 22372 ft 425 kts 316°
2026-04-20 03:32 -8.10308 114.43449 22719 ft 428 kts 316°
2026-04-20 03:32 -8.08193 114.41329 23095 ft 430 kts 316°
2026-04-20 03:33 -8.06063 114.39194 23465 ft 433 kts 316°
2026-04-20 03:33 -8.03920 114.37048 23821 ft 435 kts 315°
2026-04-20 03:33 -8.01772 114.34895 24187 ft 436 kts 315°
2026-04-20 03:33 -7.99615 114.32734 24528 ft 438 kts 315°
2026-04-20 03:34 -7.97447 114.30563 24840 ft 440 kts 315°
2026-04-20 03:34 -7.95273 114.28386 25165 ft 442 kts 315°
2026-04-20 03:34 -7.93087 114.26199 25491 ft 443 kts 316°
2026-04-20 03:34 -7.90894 114.24004 25794 ft 445 kts 316°
2026-04-20 03:35 -7.88694 114.21803 26101 ft 446 kts 316°
2026-04-20 03:35 -7.86488 114.19595 26401 ft 448 kts 315°
2026-04-20 03:35 -7.84274 114.17379 26687 ft 449 kts 316°
2026-04-20 03:35 -7.82055 114.15157 26972 ft 451 kts 316°
2026-04-20 03:36 -7.79823 114.12925 27246 ft 452 kts 316°
2026-04-20 03:36 -7.77585 114.10688 27503 ft 454 kts 316°
2026-04-20 03:36 -7.75381 114.08407 27759 ft 455 kts 311°
2026-04-20 03:36 -7.73484 114.05846 27997 ft 457 kts 304°
2026-04-20 03:37 -7.71742 114.03160 28260 ft 459 kts 303°
2026-04-20 03:37 -7.70014 114.00451 28494 ft 460 kts 303°
2026-04-20 03:37 -7.68283 113.97731 28742 ft 461 kts 303°
2026-04-20 03:37 -7.66541 113.95010 28983 ft 463 kts 303°
2026-04-20 03:38 -7.64786 113.92285 29183 ft 464 kts 304°
2026-04-20 03:38 -7.63020 113.89561 29416 ft 465 kts 304°
2026-04-20 03:38 -7.61246 113.86832 29631 ft 466 kts 304°
2026-04-20 03:38 -7.59464 113.84099 29828 ft 468 kts 304°
2026-04-20 03:39 -7.57674 113.81355 30044 ft 469 kts 304°
2026-04-20 03:39 -7.55882 113.78609 30255 ft 469 kts 304°
2026-04-20 03:39 -7.54091 113.75865 30534 ft 468 kts 304°
2026-04-20 03:39 -7.52303 113.73124 30807 ft 468 kts 304°
2026-04-20 03:40 -7.50517 113.70387 31052 ft 468 kts 304°
2026-04-20 03:40 -7.48728 113.67646 31325 ft 467 kts 304°
2026-04-20 03:40 -7.46942 113.64911 31582 ft 467 kts 305°
2026-04-20 03:40 -7.45184 113.62218 31826 ft 467 kts 305°
2026-04-20 03:41 -7.43399 113.59485 32074 ft 467 kts 305°
2026-04-20 03:41 -7.41616 113.56755 32329 ft 466 kts 305°
2026-04-20 03:41 -7.39833 113.54027 32605 ft 466 kts 305°
2026-04-20 03:41 -7.38050 113.51301 32868 ft 465 kts 305°
2026-04-20 03:42 -7.36271 113.48579 33135 ft 465 kts 305°
2026-04-20 03:42 -7.34497 113.45864 33380 ft 465 kts 305°
2026-04-20 03:42 -7.32719 113.43143 33636 ft 465 kts 305°
2026-04-20 03:42 -7.30943 113.40425 33887 ft 464 kts 305°
2026-04-20 03:43 -7.27377 113.34976 33906 ft 466 kts 306°
2026-04-20 03:43 -7.23818 113.29535 33903 ft 463 kts 305°
2026-04-20 03:44 -7.20289 113.24139 33905 ft 460 kts 305°
2026-04-20 03:44 -7.17223 113.18496 33905 ft 462 kts 292°
2026-04-20 03:45 -7.15117 113.12388 33908 ft 462 kts 291°
2026-04-20 03:45 -7.13050 113.06284 33907 ft 462 kts 291°
2026-04-20 03:46 -7.10923 113.00150 33914 ft 464 kts 291°
2026-04-20 03:46 -7.08767 112.94017 33909 ft 466 kts 291°
2026-04-20 03:47 -7.06593 112.87861 33908 ft 467 kts 291°
2026-04-20 03:47 -7.04416 112.81691 33908 ft 468 kts 291°
2026-04-20 03:48 -7.02235 112.75510 33906 ft 469 kts 291°
2026-04-20 03:48 -7.00054 112.69330 33909 ft 469 kts 291°
2026-04-20 03:49 -6.97871 112.63150 33906 ft 468 kts 291°
2026-04-20 03:49 -6.95689 112.56974 33907 ft 468 kts 291°
2026-04-20 03:50 -6.93510 112.50809 33910 ft 467 kts 291°
2026-04-20 03:50 -6.91713 112.44543 33904 ft 469 kts 279°
2026-04-20 03:51 -6.91559 112.37975 33917 ft 470 kts 271°
2026-04-20 03:51 -6.91592 112.31411 33906 ft 470 kts 271°
2026-04-20 03:52 -6.91585 112.24827 33910 ft 470 kts 272°
2026-04-20 03:52 -6.91543 112.18299 33905 ft 470 kts 272°
2026-04-20 03:53 -6.91491 112.11693 33310 ft 474 kts 272°
2026-04-20 03:53 -6.91466 112.08408 32866 ft 468 kts 272°
2026-04-20 03:53 -6.91441 112.05147 32395 ft 464 kts 272°
2026-04-20 03:54 -6.91416 112.01917 31923 ft 460 kts 272°
2026-04-20 03:54 -6.91392 111.98717 31472 ft 456 kts 272°
2026-04-20 03:54 -6.91367 111.95499 31009 ft 452 kts 272°
2026-04-20 03:54 -6.91343 111.92391 30558 ft 448 kts 272°
2026-04-20 03:55 -6.91319 111.89269 30109 ft 444 kts 272°
2026-04-20 03:55 -6.91295 111.86180 29662 ft 440 kts 272°
2026-04-20 03:55 -6.91271 111.83106 29198 ft 437 kts 272°
2026-04-20 03:55 -6.91247 111.80073 28743 ft 433 kts 272°
2026-04-20 03:56 -6.91222 111.77048 28291 ft 430 kts 272°
2026-04-20 03:56 -6.91198 111.74059 27828 ft 426 kts 272°
2026-04-20 03:56 -6.91173 111.71089 27382 ft 423 kts 271°
2026-04-20 03:56 -6.91149 111.68147 26928 ft 419 kts 271°
2026-04-20 03:57 -6.91125 111.65225 26489 ft 416 kts 271°
2026-04-20 03:57 -6.91100 111.62325 26042 ft 412 kts 271°
2026-04-20 03:57 -6.91075 111.59451 25601 ft 409 kts 271°
2026-04-20 03:57 -6.91050 111.56599 25161 ft 406 kts 271°
2026-04-20 03:58 -6.91026 111.53774 24730 ft 403 kts 271°
2026-04-20 03:58 -6.91002 111.50962 24290 ft 400 kts 271°
2026-04-20 03:58 -6.90977 111.48179 23868 ft 397 kts 271°
2026-04-20 03:58 -6.90951 111.45417 23442 ft 394 kts 271°
2026-04-20 03:59 -6.90927 111.42671 23017 ft 391 kts 271°
2026-04-20 03:59 -6.90904 111.39947 22598 ft 388 kts 271°
2026-04-20 03:59 -6.90881 111.37242 22186 ft 385 kts 271°
2026-04-20 03:59 -6.90857 111.34559 21761 ft 383 kts 271°
2026-04-20 04:00 -6.90832 111.31889 21340 ft 380 kts 271°
2026-04-20 04:00 -6.90808 111.29234 20928 ft 378 kts 271°
2026-04-20 04:00 -6.90785 111.26595 20511 ft 376 kts 271°
2026-04-20 04:00 -6.90760 111.23971 20105 ft 374 kts 271°
2026-04-20 04:01 -6.90736 111.21357 19696 ft 372 kts 271°
2026-04-20 04:01 -6.90711 111.18758 19285 ft 371 kts 271°
2026-04-20 04:01 -6.90686 111.16175 18888 ft 369 kts 271°
2026-04-20 04:01 -6.90663 111.13600 18473 ft 367 kts 271°
2026-04-20 04:02 -6.90640 111.11042 18065 ft 365 kts 271°
2026-04-20 04:02 -6.90616 111.08495 17672 ft 363 kts 271°
2026-04-20 04:02 -6.90592 111.05963 17267 ft 362 kts 271°
2026-04-20 04:02 -6.90567 111.03436 16866 ft 360 kts 271°
2026-04-20 04:03 -6.90542 111.00929 16481 ft 358 kts 271°
2026-04-20 04:03 -6.90518 110.98432 16104 ft 356 kts 271°
2026-04-20 04:03 -6.90494 110.95955 15781 ft 352 kts 271°
2026-04-20 04:03 -6.90470 110.93501 15390 ft 350 kts 271°
2026-04-20 04:04 -6.90446 110.91059 15009 ft 348 kts 271°
2026-04-20 04:04 -6.90421 110.88624 14629 ft 347 kts 271°
2026-04-20 04:04 -6.90397 110.86200 14242 ft 345 kts 271°
2026-04-20 04:04 -6.90373 110.83794 13864 ft 344 kts 271°
2026-04-20 04:05 -6.90349 110.81389 13482 ft 343 kts 271°
2026-04-20 04:05 -6.90325 110.79001 13086 ft 341 kts 271°
2026-04-20 04:05 -6.90300 110.76617 12712 ft 340 kts 271°
2026-04-20 04:05 -6.90276 110.74244 12340 ft 338 kts 271°
2026-04-20 04:06 -6.90252 110.71880 11942 ft 337 kts 271°
2026-04-20 04:06 -6.90236 110.70322 11693 ft 336 kts 271°
2026-04-20 04:06 -6.90212 110.67970 11313 ft 335 kts 271°
2026-04-20 04:06 -6.90179 110.64880 10824 ft 332 kts 271°
2026-04-20 04:07 -6.90155 110.62564 10550 ft 328 kts 271°
2026-04-20 04:07 -6.90132 110.60299 10393 ft 319 kts 271°
2026-04-20 04:07 -6.90109 110.58095 10254 ft 311 kts 271°
2026-04-20 04:07 -6.89981 110.55956 10098 ft 303 kts 284°
2026-04-20 04:08 -6.89172 110.54047 9984 ft 292 kts 301°
2026-04-20 04:08 -6.88479 110.52857 9796 ft 291 kts 301°
2026-04-20 04:08 -6.87452 110.51105 9499 ft 290 kts 301°
2026-04-20 04:08 -6.86438 110.49359 9223 ft 288 kts 301°
2026-04-20 04:09 -6.85433 110.47619 8927 ft 287 kts 301°
2026-04-20 04:09 -6.84419 110.45885 8563 ft 288 kts 301°
2026-04-20 04:09 -6.83398 110.44151 8245 ft 288 kts 301°
2026-04-20 04:09 -6.82389 110.42435 7904 ft 289 kts 301°
2026-04-20 04:10 -6.81368 110.40698 7545 ft 289 kts 301°
2026-04-20 04:10 -6.80342 110.38953 7198 ft 290 kts 301°
2026-04-20 04:10 -6.79315 110.37202 6853 ft 290 kts 301°
2026-04-20 04:10 -6.78299 110.35470 6488 ft 284 kts 301°
2026-04-20 04:11 -6.77304 110.33775 6136 ft 278 kts 301°
2026-04-20 04:11 -6.76330 110.32120 5811 ft 272 kts 301°
2026-04-20 04:11 -6.75625 110.30378 5463 ft 270 kts 276°
2026-04-20 04:11 -6.75838 110.28533 5181 ft 267 kts 246°
2026-04-20 04:12 -6.76819 110.27000 4946 ft 253 kts 223°
2026-04-20 04:12 -6.78091 110.25885 4841 ft 234 kts 218°
2026-04-20 04:12 -6.79290 110.24867 4683 ft 218 kts 218°
2026-04-20 04:12 -6.80471 110.23865 4149 ft 222 kts 218°
2026-04-20 04:13 -6.81677 110.22933 3783 ft 215 kts 203°
2026-04-20 04:13 -6.83075 110.22638 3536 ft 199 kts 175°
2026-04-20 04:13 -6.84379 110.22943 3318 ft 188 kts 154°
2026-04-20 04:13 -6.85416 110.23644 3070 ft 175 kts 135°
2026-04-20 04:14 -6.86230 110.24518 3037 ft 170 kts 131°
2026-04-20 04:14 -6.87014 110.25420 2993 ft 168 kts 130°
2026-04-20 04:14 -6.87772 110.26324 2919 ft 172 kts 130°
2026-04-20 04:14 -6.88543 110.27238 2639 ft 173 kts 129°
2026-04-20 04:15 -6.89320 110.28159 2317 ft 167 kts 129°
2026-04-20 04:15 -6.90051 110.29024 1979 ft 162 kts 129°
2026-04-20 04:15 -6.90770 110.29872 1692 ft 158 kts 129°
2026-04-20 04:15 -6.91482 110.30716 1449 ft 158 kts 128°
2026-04-20 04:16 -6.92190 110.31554 1241 ft 157 kts 128°
2026-04-20 04:16 -6.92903 110.32398 1010 ft 160 kts 128°
2026-04-20 04:16 -6.93621 110.33253 823 ft 161 kts 128°
2026-04-20 04:16 -6.94356 110.34104 617 ft 162 kts 128°
2026-04-20 04:17 -6.95052 110.34949 362 ft 153 kts 128°
2026-04-20 04:17 -6.95724 110.35746 172 ft 146 kts 128°
2026-04-20 04:17 -6.96385 110.36526 15 ft 146 kts 129°
2026-04-20 04:17 -6.96995 110.37247 5 ft 121 kts 131°
2026-04-20 04:18 -6.97424 110.37753 5 ft 51 kts 130°
2026-04-20 04:18 -6.97592 110.37951 5 ft 25 kts 131°
2026-04-20 04:18 -6.97666 110.38064 5 ft 9 kts 105°
2026-04-20 04:18 -6.97679 110.38089 5 ft 4 kts 148°
2026-04-20 04:19 -6.97697 110.38074 5 ft 4 kts 269°
2026-04-20 04:19 -6.97680 110.38051 5 ft 5 kts 310°
2026-04-20 04:19 -6.97635 110.37999 5 ft 15 kts 311°
2026-04-20 04:19 -6.97545 110.37894 6 ft 24 kts 310°
2026-04-20 04:20 -6.97435 110.37764 5 ft 24 kts 310°
2026-04-20 04:20 -6.97330 110.37641 4 ft 23 kts 310°
2026-04-20 04:20 -6.97229 110.37521 4 ft 22 kts 310°
2026-04-20 04:20 -6.97156 110.37435 4 ft 10 kts 310°
2026-04-20 04:21 -6.97093 110.37425 4 ft 10 kts 23°
2026-04-20 04:21 -6.97038 110.37468 13 ft 10 kts 39°
2026-04-20 04:21 -6.96986 110.37512 16 ft 10 kts 40°
2026-04-20 04:21 -6.96935 110.37554 17 ft 7 kts 39°
2026-04-20 04:22 -6.96899 110.37551 19 ft 6 kts 319°
2026-04-20 04:22 -6.96872 110.37521 17 ft 6 kts 311°
2026-04-20 04:22 -6.96846 110.37491 17 ft 6 kts 310°
2026-04-20 04:22 -6.96811 110.37484 18 ft 6 kts 24°
2026-04-20 04:23 -6.96784 110.37503 18 ft 2 kts 39°
2026-04-20 04:23 -6.96773 110.37513 18 ft 2 kts 40°
2026-04-20 04:23 -6.96766 110.37519 18 ft 0 kts 40°